Location: ??????????
(44.2167°N, 135.5333°E)
Time: 15:18:55
(UTC+00:00)

Cosmos 489 Rocket - Pass Details

Date: 15 June 2025
Orbit: 952 x 982 km, 74.0° (Epoch: 16 July)

Event Time Altitude Azimuth Distance (km) Brightness Sun altitude
Rises 13:03:19 0° 338° (NNW) 3,638 9.2 -17.5°
Reaches altitude 10° 13:05:50 10° 339° (NNW) 2,687 8.1 -17.7°
Maximum altitude 13:12:04 89° 252° (WSW) 959 4.4 -18.2°
Enters shadow 13:15:18 31° 161° (SSE) 1,622 5.1 -18.4°
